Погода в Вилкине

Россия / Курганская область     55°32′43″N   64°07′42″E
темп.,
°C
ветер,
м/с
пор.,
м/с
влажн.,
%
обл.,
%
осадки,
мм/ч
давл.,
гПа
погр.,
м
30 июня, чт
чт3023:00+7з3495100 0.1 100665
02:00+7зсз36935 0.0 1005100
05:00+6сз398927 0.0 1005153
08:00+12сз46735 0.0 1006333
11:00+16ссз45535 0.0 10071282
14:00+18зсз455211 0.0 10071714
17:00+18зсз235666 0.1 10081313
20:00+15с11769 0.7 100815
1 июля, пт
пт123:00+11с22858 0.8 101011
02:00+9ссв228334 0.0 101020
05:00+7ссв228947 0.0 101233
08:00+13ссв33716 0.0 1013334
11:00+16ссз45581 0.0 1013908
14:00+18сз56555 0.0 10131430
17:00+18ссз56545 0.0 10131418
20:00+15зсз23723 0.0 101346
2 июля, сб
сб223:00+11сз22836 0.0 101311
02:00+10сз228525 0.0 101312
05:00+10сз2286100 0.0 101332
08:00+14сз237493 0.0 1013293
11:00+17ссз336480 0.1 1013842
14:00+19ссз335640 0.3 10121215
17:00+20сз235386 0.4 10121546
20:00+17ссз22735 0.1 101220
3 июля, вс
вс323:00+13сз11785 0.1 101210
02:00+11сз11813 0.0 101110
05:00+11зсз11825 0.0 101110
08:00+16з22695 0.0 1010289
11:00+19з225671 0.0 10091308
14:00+21сз215053 0.0 10071787
17:00+21сз1155100 0.0 1006895
20:00+18с227382 0.1 100526
4 июля, пн
пн423:00+14св3481100 0.1 100576
02:00+13с4792100 0.0 1004199
05:00+13ссв5998100 0.8 1005483
08:00+12ссв71196100 0.5 1006542
11:00+10ссв71395100 2.7 1008646
14:00+11ссв51284100 0.1 1009748
17:00+14ссв586892 0.1 10091139
20:00+13ссв596778 0.0 1010421